Flag for U.S.A. Weather past 2 weeks in Fort Myers, Florida, U.S.A.

Now
89 °F

Sunny.


Feels Like: 94 °F
Forecast: 72 / 90 °F
Wind: 14 mph from West

Location: Page Field

Current Time: Apr 25, 2015 at 6:09:01 PM

Latest Report: Apr 25, 2015 at 4:53 PM


Visibility: 10 mi

Pressure: 29.85 "Hg

Humidity: 52%

Dew point: 69 °F

Location of Fort MyersLocation

Historic Weather in Fort Myers — Graph

°F

Fort Myers temperature yesterday

Maximum temperature yesterday: 89 °F (at 1:53 PM)
Minimum temperature yesterday: 74 °F (at 3:53 AM)
Average temperature yesterday: 81 °F

Past Weeks' High & Low Weather Summary

 TemperatureHumidityPressure
High91 °F (Apr 25, 1:53 PM)100% (Apr 13, 6:53 AM)30.16 "Hg (Apr 13, 6:53 AM)
Low69 °F (Apr 12, 4:53 AM)41% (Apr 16, 1:53 PM)29.85 "Hg (Apr 25, 4:53 PM)
Average79 °F76%30.01 "Hg
* Reported Apr 10 4:53 PM — Apr 25 4:53 PM, Fort Myers, Weather by CustomWeather, © 2015

Note: Actual official high and low records may vary slightly from our data, if they occured in-between our weather recording intervals... More about our weather records

Advertising

Fort Myers weather history for previous 24 hours

 ConditionsComfort  
Time TempWeatherWind HumidityBarometerVisibility
4:53 PM
Sat, Apr 25
89 °FSunny.14 mph52%29.85 "Hg10 mi
3:53 PM88 °FSunny.10 mph55%29.86 "Hg10 mi
2:53 PM89 °FSunny.12 mph55%29.90 "Hg10 mi
1:53 PM91 °FSunny.15 mph49%29.92 "Hg10 mi
12:53 PM88 °FScattered clouds.13 mph63%29.93 "Hg10 mi
11:53 AM87 °FScattered clouds.10 mph65%29.95 "Hg10 mi
10:53 AM85 °FPassing clouds.9 mph68%29.94 "Hg10 mi
9:53 AM82 °FSunny.10 mph72%29.94 "Hg10 mi
8:53 AM78 °FSunny.8 mph82%29.95 "Hg10 mi
7:53 AM73 °FClear.5 mph94%29.94 "Hg10 mi
6:53 AM71 °FClear.3 mph96%29.92 "Hg10 mi
5:53 AM72 °FClear.6 mph93%29.90 "Hg10 mi
4:53 AM72 °FClear.5 mph91%29.90 "Hg10 mi
3:53 AM72 °FClear.3 mph91%29.92 "Hg10 mi
2:53 AM73 °FClear.5 mph84%29.93 "Hg10 mi
1:53 AM74 °FClear.7 mph82%29.94 "Hg10 mi
12:53 AM76 °FClear.9 mph82%29.96 "Hg10 mi
11:53 PM
Fri, Apr 24
78 °FPassing clouds.7 mph79%29.97 "Hg10 mi
10:53 PM81 °FMostly cloudy.5 mph72%29.98 "Hg10 mi
9:53 PM80 °FPassing clouds.6 mph76%29.96 "Hg10 mi
8:53 PM81 °FPassing clouds.9 mph72%29.94 "Hg10 mi
6:53 PM86 °FSunny.12 mph57%29.92 "Hg10 mi
Weather by CustomWeather, © 2015

See weather overviewHow to use our weather pages